{"data":{"norad_id":68769,"epoch":"2026-09-20T01:25:08.741280Z","epoch_age_seconds":78194,"freshness":"FRESH","line1":"1 68769U 26086D   26263.05912895  .00014907  00000+0  46301-3 0  9993","line2":"2 68769  97.2846 298.4329 0001339 110.2798 249.8589 15.33454899 23613","mean_motion":15.33454899,"eccentricity":0.0001339,"inclination_deg":97.2846,"raan_deg":298.4329,"arg_perigee_deg":110.2798,"mean_anomaly_deg":249.8589,"bstar":0.00046301,"rev_number":2361,"period_min":93.905598458687,"perigee_km":464.59735734541,"apogee_km":466.43008700881,"semimajor_km":6843.6507221771,"source":"CELESTRAK","updated_at":"2026-09-20T09:00:43.997529Z"}}